EW1761 Weather Reports


time (UTC)temp
F
wind
direction
speed
knots
gust
knots
rain 1hr
in
rain 24hr
in
rain mn
in
humidity
%
barometer
mb
20260505040014 62 157 0.9 2.6 0.00 0.00 0.00 53 1015.7
20260505034513 62 158 0.9 3.5 0.00 0.00 0.00 53 1015.8
20260505033012 62 167 0.0 2.6 0.00 0.00 0.00 53 1016.0
20260505031523 61 198 0.0 1.7 0.00 0.00 0.00 56 1015.8
20260505030010 61 198 0.9 2.6 0.00 0.00 0.00 57 1015.9
20260505024510 59 217 0.0 1.7 0.00 0.00 0.00 61 1015.8
20260505023010 59 220 0.0 0.0 0.00 0.00 0.00 61 1015.7
20260505021508 59 220 0.0 0.0 0.00 0.00 0.00 58 1015.7
20260505020009 61 220 0.0 0.9 0.00 0.00 0.00 56 1015.6
20260505014514 62 220 0.0 0.9 0.00 0.00 0.00 56 1015.5
20260505013007 61 220 0.0 0.9 0.00 0.00 0.00 55 1015.3
20260505011509 62 220 0.0 0.0 0.00 0.00 0.00 55 1015.3
20260505010013 63 220 0.0 0.9 0.00 0.00 0.00 52 1015.1
20260505004507 64 220 0.0 0.9 0.00 0.00 0.00 49 1015.0
20260505003006 65 220 0.0 0.9 0.00 0.00 0.00 46 1014.7
20260505001505 67 220 0.0 0.9 0.00 0.00 0.00 44 1014.6
20260505000005 69 220 0.0 0.9 0.00 0.00 0.00 41 1014.6
20260504234505 71 180 0.0 1.7 0.00 0.00 0.00 36 1014.5
20260504233004 73 178 0.0 2.6 0.00 0.00 0.00 35 1014.4
20260504231503 74 136 0.9 3.5 0.00 0.00 0.00 34 1014.2
20260504230005 74 171 0.0 3.5 0.00 0.00 0.00 34 1014.2
20260504224508 75 200 0.9 6.1 0.00 0.00 0.00 33 1014.2
20260504223003 78 225 0.9 4.3 0.00 0.00 0.00 31 1014.2
20260504221501 79 159 0.9 4.3 0.00 0.00 0.00 31 1014.2
20260504220002 78 224 1.7 5.2 0.00 0.00 0.00 27 1014.2
20260504214600 80 148 0.9 4.3 0.00 0.00 0.00 28 1014.2
20260504213103 80 181 2.6 7.8 0.00 0.00 0.00 29 1014.2
20260504211601 80 232 1.7 7.0 0.00 0.00 0.00 30 1014.2
20260504204555 78 198 1.7 7.8 0.00 0.00 0.00 30 1014.4
20260504203051 80 267 1.7 3.5 0.00 0.00 0.00 31 1014.6
20260504201549 79 245 0.9 4.3 0.00 0.00 0.00 30 1014.8
20260504200053 79 186 0.9 3.5 0.00 0.00 0.00 32 1015.1
20260504194542 79 157 1.7 4.3 0.00 0.00 0.00 31 1015.3
20260504193043 78 179 1.7 5.2 0.00 0.00 0.00 32 1015.4
20260504191539 78 257 0.9 4.3 0.00 0.00 0.00 31 1015.5
20260504190037 77 216 1.7 6.1 0.00 0.00 0.00 31 1015.7
20260504184538 77 180 0.9 3.5 0.00 0.00 0.00 34 1015.9
20260504183036 77 200 2.6 6.1 0.00 0.00 0.00 34 1016.1
20260504181532 77 24 0.9 4.3 0.00 0.00 0.00 31 1016.3
20260504180029 75 250 1.7 5.2 0.00 0.00 0.00 35 1016.5
20260504174527 76 213 1.7 4.3 0.00 0.00 0.00 34 1016.5
20260504173025 75 360 1.7 4.3 0.00 0.00 0.00 35 1016.6
20260504171522 73 56 0.9 6.1 0.00 0.00 0.00 34 1017.0
20260504150103 65 350 0.9 3.5 0.00 0.00 0.00 55 1018.4
20260504081504 44 178 0.0 0.0 0.00 0.00 0.00 86 1017.7
20260504044529 52 177 0.0 1.7 0.00 0.00 0.00 72 1017.6
20260504043037 52 177 0.0 1.7 0.00 0.00 0.00 73 1017.7
20260504041532 52 177 0.0 0.0 0.00 0.00 0.00 72 1017.7